Regional Weather Roundup
Issued by NWS

Home | Current Version | Previous Version | Graphics & Text | Print | Product List | Glossary On
Versions: 1 2 3 4 5 6 7 8 9 10 11 12 13 14 15 16 17 18 19 20 21 22 23 24 25 26 27 28 29 30 31 32 33 34 35 36 37 38 39 40 41 42 43 44 45 46 47 48 49 50
000
ASUS43 KDTX 291110
RWRMI
MICHIGAN HOURLY REGIONAL WEATHER ROUNDUP
NATIONAL WEATHER SERVICE DETROIT/PONTIAC MI
700 AM EDT FRI JUL 29 2016

NOTE: "FAIR" INDICATES FEW OR NO CLOUDS BELOW 12,000 FEET WITH NO
SIGNIFICANT WEATHER AND/OR OBSTRUCTION TO VISIBILITY.

MIZ047>049-052>055-059>063-066>070-074>076-081>083-291200-
SOUTHEAST LOWER MICHIGAN

CITY           SKY/WX    TMP DP  RH WIND       PRES   REMARKS
ADRIAN         CLEAR     65  62  90 E5        29.94S
ALMA           LGT RAIN  66  63  89 N7        29.99R
ANN ARBOR      PTCLDY    66  62  87 N5        29.94S
BAD AXE        CLOUDY    66  62  88 NE7       30.00R
CARO           CLOUDY    66  63  91 CALM      29.98R
DETROIT CITY   CLEAR     69  64  84 N5        29.94R
DETROIT        MOCLDY    69  62  78 N6        29.94R
FLINT          CLOUDY    69  61  75 N5        29.97R
GROSSE ILE     CLEAR     69  64  83 N3        29.93R
HILLSDALE      CLEAR     64  60  88 CALM      29.96R
HOWELL         CLEAR     64  62  93 N3        29.96S

CITY           SKY/WX    TMP DP  RH WIND       PRES   REMARKS
JACKSON        CLEAR     65  62  90 N3        29.96R
LAMBERTVILLE   CLOUDY    66  60  80 CALM      29.94S
LANSING        PTCLDY    64  60  87 NE7       29.97R
LAPEER         CLOUDY    65  62  90 CALM      29.97S
MASON          CLEAR     64  61  91 CALM      29.96S
MONROE         CLEAR     64  60  90 CALM      29.93S
MT. CLEMENS    PTCLDY    66  64  91 N7        29.92R
PONTIAC        CLOUDY    66  63  90 NE7       29.95R
PORT HOPE        N/A     70  63  78 E21       29.98R
PORT HURON     CLOUDY    64  63  94 CALM      29.95S
TRI CITIES     CLOUDY    67  65  93 NE7       29.98S
MIDLAND        CLOUDY    65  62  89 N6        29.99R
TROY           CLEAR     70  62  76 N3        29.96S
SAGINAW HB     CLOUDY    68  61  77 NE10      29.97S
$$
MIZ043>046-050>051-056>058-064>065-071>073-077>080-291200-
SOUTHWEST LOWER MICHIGAN

CITY           SKY/WX    TMP DP  RH WIND       PRES   REMARKS
BATTLE CREEK   CLOUDY    65  65 100 E5        29.96R
BENTON HARBOR  CLEAR     67  64  90 E5        29.92R
BIG RAPIDS     LGT RAIN  63  63 100 CALM      30.00F
COLDWATER      CLOUDY    68  63  83 E5        29.95R
FREMONT        CLOUDY    63  63 100 E6        29.99R
HOLLAND        CLOUDY    68  62  81 NE7       29.96R
GRAND RAPIDS   CLOUDY    67  63  87 NE6       29.98R
IONIA          CLOUDY    65  61  86 N8        29.98R
KALAMAZOO      MOCLDY    67  62  84 VRB5      29.94R
LUDINGTON      PTCLDY    63  62  97 E8        29.99S
MARSHALL       LGT RAIN  66  64  91 CALM      29.95R
MOUNT PLEASANT LGT RAIN  65  61  85 N5        30.00R
MUSKEGON       CLOUDY    66  64  93 NE12      29.97R THUNDER
SOUTH HAVEN    MOCLDY    67  66  97 E6        29.93R
$$
MIZ016>042-291200-
NORTHERN LOWER MICHIGAN

CITY           SKY/WX    TMP DP  RH WIND       PRES   REMARKS
ALPENA         PTCLDY    62  56  80 CALM      30.05S
BEAVER ISLAND  CLOUDY    65  59  82 E9        30.05R
BELLAIRE       CLOUDY    58  55  89 CALM      30.04R
CADILLAC       LGT RAIN  60  59  95 CALM      30.03S
CHARLEVOIX     CLOUDY    66  57  73 E8        30.06S
FRANKFORT      CLOUDY    63  60  90 E3        30.02S
GAYLORD        CLOUDY    61  55  81 NE7       30.05S
GRAYLING       CLOUDY    63  57  82 E5        30.04S
HARBOR SPRINGS PTCLDY    62  58  86 NE7       30.04S
HOUGHTON LAKE  CLOUDY    61  59  93 NE5       30.04S
MANISTEE       LGT RAIN  62  61  96 E6        30.00S
OSCODA         CLOUDY    67  59  74 NE7       30.02R
PELLSTON       MOCLDY    53  51  93 CALM      30.06S
ROGERS CITY    CLOUDY    64  56  74 E7        30.07R
TRAVERSE CITY  CLOUDY    65  63  93 CALM      30.02R
$$
MIZ007>008-015-291200-
EASTERN UPPER MICHIGAN

CITY           SKY/WX    TMP DP  RH WIND       PRES   REMARKS
KINROSS        CLOUDY    56  53  90 CALM      30.09R
MACKINAC ISLAN MOCLDY    63  56  80 E8        30.06S
NEWBERRY       CLEAR     54  52  94 N3        30.08S
S. S. MARIE    CLOUDY    59  54  83 NE5       30.08R
MUNISING         N/A     61  54  77 VRB7      30.06S
$$
MIZ004>006-011>014-085-291200-
CENTRAL UPPER MICHIGAN

CITY           SKY/WX    TMP DP  RH WIND       PRES   REMARKS
MANISTIQUE     CLEAR     57  55  94 NE6       30.06R
ESCANABA       PTCLDY    57  54  88 N3        30.04R
MENOMINEE      MOCLDY   N/A N/A N/A N6        30.04S
SAWYER-GWINN   CLEAR     55  54  94 N3        30.08S
$$
MIZ001>003-009>011-084-291200-
WESTERN UPPER MICHIGAN

CITY           SKY/WX    TMP DP  RH WIND       PRES   REMARKS
IRON MOUNTAIN  CLEAR     51  47  86 CALM      30.06S
HOUGHTON       CLEAR     58  50  75 NE5       30.10R
COPPER HARBOR    N/A     54  53  97 W6        30.10R
IRONWOOD       CLEAR     43  41  93 CALM      30.10S
$$

ABBREVIATIONS USED IN REMARKS
   TC - TEMPERATURE IN CELSIUS
  WCI - WIND CHILL INDEX
   HX - HEAT INDEX
  VSB - VISIBILITY





USA.gov is the U.S. government's official web portal to all federal, state and local government web resources and services.